Location: Famechon
(49.7599°N, 2.0615°E)
Time: 16:14:57
(UTC+00:00)

NOAA 6 - Pass Details

Date: 03 February 2023
Orbit: 770 x 786 km, 98.7° (Epoch: 26 March)

Event Time Altitude Azimuth Distance (km) Brightness Sun altitude
Rises 17:45:57 0° 170° (S) 3,250 7.3 -9.4°
Reaches altitude 10° 17:48:15 10° 172° (S) 2,329 6.6 -9.7°
Maximum altitude 17:53:23 71° 256° (WSW) 831 4.4 -10.5°
Drops below altitude 10° 17:58:35 10° 341° (NNW) 2,356 6.6 -11.4°
Sets 18:00:56 0° 344° (NNW) 3,290 7.3 -11.7°
